Location: Vienna
(48.2082°N, 16.3738°E)
Time: 17:38:09
(UTC+02:00)

ISS - Visible Passes

Search period start: 27 May 2022 00:00
Search period end: 06 June 2022 00:00
Orbit: 414 x 421 km, 51.6° (Epoch: 27 May)

Date Brightness Start Highest point End Pass type
(mag) Time Alt. Az. Time Alt. Az. Time Alt. Az.
27 May -3.8 21:48:54 10° WNW 21:52:15 73° SSW 21:55:00 14° ESE visible
27 May -1.5 23:26:34 10° W 23:27:55 14° WSW 23:27:55 14° WSW visible
28 May -2.2 22:37:54 10° W 22:40:36 23° SW 22:41:29 20° SSW visible
29 May -2.7 21:49:31 10° W 21:52:36 34° SW 21:55:05 14° SSE visible
31 May -1.5 21:50:36 10° W 21:52:40 15° SW 21:54:44 10° S visible
